Tracking 20626 objects as of 10-Apr-2020
HD Live streaming from Space Station
objects crossing your sky now

PEGASUS DEB

Track PEGASUS DEB now!
10-day predictions


NORAD ID: 24165
Int'l Code: 1994-029HQ
Perigee: 568.4 km
Apogee: 953.5 km
Inclination: 82.2 °
Period: 99.9 minutes
Semi major axis: 7131 km
RCS: 0.0387 m2 (small)
Launch date: May 19, 1994
Source: United States (US)
Launch site: AIR FORCE WESTERN TEST RANGE (AFWTR)

Note: This is SATELLITE DEBRIS
aabbcc
Your satellite tracking list
Your tracking list is empty




NASA's NSSDC Master Catalog

Two Line Element Set (TLE):
1 24165U 94029HQ  20100.82299059 +.00000837 +00000-0 +16309-3 0  9999
2 24165 082.1808 125.9970 0270009 319.1220 038.9992 14.41424411230186
Source of the keplerian elements: AFSPC